Flag for U.S.A. Weather past 2 weeks in Sunrise, Florida, U.S.A.

Now
75 °F

Scattered clouds.


Feels Like: 77 °F
Forecast: 60 / 79 °F
Wind: 7 mph from Southeast

Location: Fort Lauderdale Executive Airport

Current Time: Dec 20, 2014 at 5:38:05 PM

Latest Report: Dec 20, 2014 at 4:53 PM


Visibility: 10 mi

Pressure: 30.05 "Hg

Humidity: 60%

Dew point: 60 °F

Location of SunriseLocation

Historic Weather in Sunrise — Graph

°F

Sunrise temperature yesterday

Maximum temperature yesterday: 78 °F (at 1:53 PM)
Minimum temperature yesterday: 57 °F (at 2:53 AM)
Average temperature yesterday: 67 °F

Past Weeks' High & Low Weather Summary

 TemperatureHumidityPressure
High80 °F (Dec 5, 3:53 PM)93% (Dec 7, 4:53 AM)30.25 "Hg (Dec 7, 4:53 AM)
Low49 °F (Dec 11, 3:53 AM)34% (Dec 10, 12:53 PM)29.98 "Hg (Dec 9, 1:53 PM)
Average65 °F70%30.10 "Hg
* Reported Dec 5 3:53 PM — Dec 20 3:53 PM, Sunrise, Weather by CustomWeather, © 2014

Note: Actual official high and low records may vary slightly from our data, if they occured in-between our weather recording intervals... More about our weather records

Advertising

Sunrise weather history for previous 24 hours

 ConditionsComfort  
Time TempWeatherWind HumidityBarometerVisibility
3:53 PM
Dec 20
77 °FScattered clouds.10 mph58%30.04 "Hg10 mi
2:53 PM78 °FScattered clouds.8 mph56%30.04 "Hg10 mi
1:53 PM77 °FScattered clouds.9 mph58%30.04 "Hg10 mi
12:53 PM78 °FScattered clouds.12 mph56%30.06 "Hg10 mi
11:53 AM78 °FScattered clouds.12 mph54%30.09 "Hg10 mi
10:53 AM77 °FScattered clouds.7 mph56%30.11 "Hg10 mi
9:53 AM75 °FScattered clouds.No wind62%30.12 "Hg10 mi
8:53 AM71 °FScattered clouds.No wind76%30.10 "Hg10 mi
7:53 AM62 °FSunny.No wind86%30.09 "Hg10 mi
6:53 AM59 °FPassing clouds.No wind90%30.08 "Hg10 mi
5:53 AM59 °FClear.No wind90%30.06 "Hg10 mi
4:53 AM60 °FClear.No wind90%30.05 "Hg10 mi
3:53 AM60 °FClear.No wind93%30.05 "Hg9 mi
2:53 AM60 °FClear.No wind90%30.05 "Hg10 mi
1:53 AM62 °FPassing clouds.No wind86%30.06 "Hg10 mi
12:53 AM63 °FClear.No wind87%30.06 "Hg10 mi
11:53 PM
Dec 19
62 °FClear.No wind86%30.08 "Hg10 mi
10:53 PM65 °FClear.3 mph85%30.07 "Hg10 mi
9:53 PM66 °FClear.No wind81%30.08 "Hg10 mi
8:53 PM67 °FClear.No wind79%30.09 "Hg10 mi
7:53 PM68 °FClear.3 mph73%30.08 "Hg10 mi
6:53 PM70 °FClear.3 mph68%30.07 "Hg10 mi
5:53 PM72 °FClear.7 mph64%30.04 "Hg10 mi
Weather by CustomWeather, © 2014

See weather overviewHow to use our weather pages